Voltar ao catálogo

FREGAT DEB

AtivoUNKNOWN
NORAD 45831·DEBRIS·🇷🇺 Russia

Lançado Jul 18, 2011 de Baikonur Cosmodrome

Loading…

Próximas Passagens (próximas 24 horas)

TLE

AtualizadoSource: Space-Track

Época: Sep 14, 2026, 01:37 UTC

1 45831U 11037BR  26257.06773635  .00000484  00000-0  29146-3 0  9993
2 45831  51.4429 161.0708 1629432 240.6123 102.2413 11.56314012264184

Acompanhe FREGAT DEB em tempo real com AllMySat

Download on the App Store